www.pogodaiklimat.ru

Погода и климат >> Архив погоды >> Парагвай >> Грал Бругуез


ПОГОДА в Грал Бругуез

  • Прогноз погоды в Грал Бругуез
  • Монитор погоды в Грал Бругуез

АРХИВ ПОГОДЫ в Грал Бругуез

Время (UTC), дата Ветер
(напр.,м/с)
 
Видим.   Явления Облачность Т
(С)
Тd
(С)
f
(%)
Тe
(С)
Тes
(С)
Комфортность P
(гПа)
Po
(гПа)
Тmin
(С)
Tmax
(С)
R
(мм)
R24
(мм)
S
(см)
09 17.02 Ю 2 20 км ясно +20.4 +19.6 95 +25 +25 комфорт 1008.0 997.6
12 17.02 ЮЗ 2 20 км ясно +23.6 +21.2 86 +30 +36 очень
душно
1008.4 998.1 +20.4
15 17.02 Ю 2 20 км 6/6 1000 м
[Cu med, cong]
+28.8 +21.4 64 +36 +44 очень
душно
1008.4 998.3
18 17.02 Ю 7 20 км 6/6 960 м
[Cu med, cong]
+30.8 +20.7 55 +38 +40 очень
душно
1007.0 997.0
21 17.02 Ю 4 20 км 5/5 960 м
[Cu med, cong]
+30.6 +20.5 55 +38 +38 очень
душно
1005.3 995.3
00 18.02 штиль 0 20 км 3/3 900 м
[Sc diur, vesp]
+26.4 +22.7 80 +35 +35 очень
душно
1006.0 995.8 +31.6
09 18.02 штиль 0 20 км ясно +21.0 +20.8 99 +26 +26 душно 1006.8 996.4
12 18.02 СВ 2 20 км ясно +23.8 +21.2 85 +30 +37 очень
душно
1007.5 997.2 +20.5
15 18.02 СВ 2 20 км 4/4 1200 м
[Cu hum]
+29.8 +21.3 60 +37 +49 очень
душно
1007.4 997.4
18 18.02 ЮЗ 2 20 км 6/6 1000 м
[Cu med, cong]
+32.2 +20.0 49 +39 +45 очень
душно
1005.5 995.5
21 18.02 ЮЗ 2 20 км 4/4 960 м
[Cu med, cong]
+33.0 +19.5 45 +39 +40 очень
душно
1003.3 993.4
00 19.02 Ю 1 20 км ясно +27.6 +22.5 74 +36 +36 очень
душно
1004.8 994.7 +33.4
09 19.02 ЮВ 1 20 км 6/0
[Ac As]
+22.2 +21.8 98 +29 +29 очень
душно
1006.8 996.5
12 19.02 ЮВ 1 20 км ясно +27.4 +22.4 74 +36 +43 очень
душно
1007.1 997.0 +21.8
15 19.02 В 1 20 км 3/3 1200 м
[Cu hum]
+33.0 +21.4 51 +41 +57 опасность
перегрева
1007.0 997.1
18 19.02 В 1 20 км 6/6 900 м
[Cu med, cong]
+33.2 +21.1 49 +41 +48 опасность
перегрева
1005.7 995.8
21 19.02 В 3 20 км {гроза} 5/5 900 м
[Cu med, cong]
+32.6 +21.4 52 +41 +41 опасность
перегрева
1003.8 993.9
00 20.02 В 1 20 км ясно +29.2 +24.6 76 +41 +41 опасность
перегрева
1004.9 994.9 +35.6
09 20.02 штиль 0 20 км ясно +22.0 +21.8 99 +29 +29 очень
душно
1007.4 997.1
12 20.02 В 1 20 км ясно +27.0 +22.8 78 +36 +43 очень
душно
1007.8 997.7 +22.0
15 20.02 В 2 20 км 3/3 1200 м
[Cu hum]
+32.6 +21.4 52 +41 +54 опасность
перегрева
1008.0 998.0
18 20.02 В 1 20 км 4/4 1200 м
[Cu hum]
+33.2 +22.9 55 +43 +54 опасность
перегрева
1006.0 996.1
21 20.02 В 1 20 км 4/4 1000 м
[Cu med, cong]
+35.0 +20.2 42 +41 +42 опасность
перегрева
1004.1 994.3
00 21.02 штиль 0 20 км ясно +29.0 +24.6 77 +41 +41 опасность
перегрева
1004.7 994.7 +35.2
09 21.02 штиль 0 20 км ясно +22.4 +21.8 96 +30 +30 очень
душно
1007.1 996.8
12 21.02 СВ 4 20 км ясно +27.2 +22.7 76 +36 +40 очень
душно
1008.5 998.4 +22.2
15 21.02 С 6 20 км 5/5 1200 м
[Cu med, cong]
+33.0 +22.7 55 +43 +47 опасность
перегрева
1008.7 998.8
18 21.02 С 4 20 км 5/5 1200 м
[Cu med, cong]
+35.4 +21.5 45 +43 +48 опасность
перегрева
1007.9 998.0
21 21.02 В 4 20 км 3/3 1200 м
[Cu hum]
+36.0 +19.6 38 +41 +42 опасность
перегрева
1006.0 996.1
00 22.02 штиль 0 20 км ясно +29.6 +24.4 74 +42 +42 опасность
перегрева
1006.2 996.2 +36.4
09 22.02 штиль 0 20 км ясно +22.2 +20.6 91 +29 +29 очень
душно
1008.4 998.1
12 22.02 В 2 20 км ясно +27.0 +22.8 78 +36 +42 очень
душно
1008.9 998.9 +22.0
15 22.02 СВ 3 20 км 3/3 1200 м
[Cu hum]
+34.0 +24.0 56 +46 +57 опасность
перегрева
1008.9 999.0
18 22.02 СВ 1 20 км 5/5 1200 м
[Cu hum]
+36.0 +23.2 48 +46 +55 опасность
перегрева
1007.5 998.6
21 22.02 СВ 2 20 км 4/4 900 м
[Cu med, cong]
+36.8 +21.0 40 +44 +45 опасность
перегрева
1005.5 995.7
00 23.02 СВ 1 20 км ясно +31.0 +23.7 65 +42 +42 опасность
перегрева
1006.2 996.2 +37.0
09 23.02 СВ 2 20 км ясно +24.2 +23.7 97 +33 +33 очень
душно
1006.4 996.1
12 23.02 СВ 6 20 км ясно +27.2 +22.4 75 +36 +38 очень
душно
1006.1 996.0 +24.0
15 23.02 С 8 20 км ясно +33.8 +22.6 52 +43 +46 опасность
перегрева
1005.8 995.9
18 23.02 СВ 7 20 км 3/3 1200 м
[Cu hum]
+36.6 +21.1 41 +44 +47 опасность
перегрева
1003.8 994.0
21 23.02 СВ 6 20 км 1/1 1200 м
[Cu med, cong]
+36.4 +22.9 46 +46 +47 опасность
перегрева
1001.6 991.8
00 24.02 В 4 20 км ясно +31.8 +22.0 56 +40 +40 очень
душно
1001.2 991.3 +37.2

 

Местоположение метеостанции Грал Бругуез (Парагвай): широта -24.76 долгота -58.83 высота над уровнем моря 80 м.

В архиве по умолчанию представлена погода в Грал Бругуез за последнюю неделю. Архивные данные за месяц целиком и за предыдущие месяцы, начиная с января 2011 года, Вы можете получить, выбрав интересующий диапазон дат из раскрывающегося списка и нажав кнопку "Ввод!".


*Определитесь, кто Вы:
робот инопланетянин человек

Внимание! Время в таблицах - всемирное. Для получения местного времени необходимо прибавить поправку, которая равна -4 ч.

Смотрите также архив погоды в соседних городах и на ближайших метеорологических станциях:

Погода в Асунсьоне (Парагвай) (144 км)
Погода в Посо Колорадо (Парагвай) (154 км)
Погода в Формосе (Аргентина) (171 км)
Погода в Лас-Ломитасе (Аргентина) (177 км)
Погода в Сан-Педро (Парагвай) (194 км)
Погода в Парагуари (Парагвай) (197 км)
Погода в Консепсьоне (Парагвай) (216 км)
Погода в Пиларе (Парагвай) (238 км)
Погода в Сан Эстанислао (Парагвай) (243 км)
Погода в Куйкуйо (Парагвай) (247 км)

Пояснения к столбцам:

Ветер - указаны скорость ветра в м/с - средняя за 10 мин, порывы в срок и между сроками (в фигурных скобках) и направление, откуда дует ветер: С - северный, СВ - северо-восточный, В - восточный, ЮВ - юго-восточный, Ю - южный, ЮЗ - юго-западный, З - западный, СЗ - северо-западный.
Видимость - горизонтальная дальность видимости в метрах или километрах. При видимости от 1 до 10 км при отсутствии осадков обычно наблюдается дымка, при ухудшении видимости до 1 км и менее - туман. В сухую погоду видимость может ухудшаться дымом, пылью или мглою.
Явления - указаны атмосферные явления, наблюдавшиеся в срок или в последний час перед сроком; фигурными скобками обозначены явления, наблюдавшиеся между сроками (за 1-3 часа до срока); квадратными скобками обозначены град или гололедные отложения с указанием их диаметра в мм.
Облачность - указаны через наклонную черту общая и нижняя облачность в баллах и высота нижней границы облаков в метрах; квадратными скобками обозначены формы облаков: Ci - перистые, Cs - перисто-слоистые, Cc - перисто-кучевые, Ac - высококучевые, As - высокослоистые, Sc - слоисто-кучевые, Ns - слоисто-дождевые, Cu - кучевые, Cb - кучево-дождевые. Подробнее классификацию облаков см. в Атласе облаков (PDF).
T - Температура воздуха - температура, измеренная на высоте 2 м над землей.
Td - Температура точки росы - температура, при понижении до которой содержащийся в воздухе водяной пар достигнет насыщения.
f - Относительная влажность воздуха - влажноcть воздуха, измеренная на высоте 2 м над землей.
Te - Эффективная температура - температура, которую ощущает одетый по сезону человек в тени. Характеристика душности погоды. При расчете учитывается влияние влажности воздуха и скорости ветра на теплоощущения человека.
Tes - Эффективная температура на солнце - температура, которую ощущает человек, с поправкой на солнечный нагрев. Характеристика знойности погоды. Зависит от высоты солнца над горизонтом, облачности и скорости ветра. Ночью, в пасмурную погоду, а также при ветре 12 м/с и более поправка равна нулю.
P - Атмосферное давление - приведенное к уровню моря атмосферное давление.
Po - Атмосферное давление - измеренное на уровне метеостанции атмосферное давление.
Tmin - Минимальная температура - минимум температуры воздуха на высоте 2 м над землей.
Tmax - Максимальная температура - максимум температуры воздуха на высоте 2 м над землей.
R - Количество осадков - Количество выпавших осадков за период времени, мм. При наведении курсора мыши на число - период времени, за который выпало указанное количество осадков.
R24 - Количество осадков - Количество выпавших осадков за 24 часа, мм.
S - Снежный покров - Высота снежного покрова, см. При наведении курсора мыши на число - состояние снежного покрова и степень покрытия местности в баллах.